Weather History for Port Hedland, WE

Change the Weather History Date:

Wednesday, December 26, 2012

  Actual Average Record
Temperature  
Mean Temperature 96 °F -  
Max Temperature 108 °F 97 °F 108 °F (2012)
Min Temperature 85 °F 78 °F 73 °F (1999)
Cooling Degree Days 32    
Growing Degree Days 46 (Base 50)    
Moisture  
Dew Point 73 °F    
Average Humidity 57    
Maximum Humidity 84    
Minimum Humidity 13    
Precipitation  
Precipitation 0.00 in 0.08 in - ()
Sea Level Pressure  
Sea Level Pressure 29.72 in    
Wind  
Wind Speed 12 mph ()    
Max Wind Speed 25 mph    
Max Gust Speed 29 mph    
Visibility 7.8 miles    
Events      
Averages and records for this station are not official NWS values.
T = Trace of Precipitation, MM = Missing Value Source: Averaged Metar Reports

Daily Weather History Graph

Daily Weather History Graph

Search for Another Location

Airport:

Trip Planner

Search our weather history database for the weather conditions in past years. The results will help you decide how hot, cold, wet, or windy it might be!

Date:

Astronomy

Dec. 26, 2012 Rise Set
Actual Time 5:25 AM AWST 6:47 PM AWST
Civil Twilight 5:00 AM AWST 7:11 PM AWST
Nautical Twilight 4:31 AM AWST 7:40 PM AWST
Astronomical Twilight 4:00 AM AWST 8:11 PM AWST
Moon 5:03 PM AWST (12/26) 3:32 AM AWST (12/26)
Length of Visible Light 14h 11m
Length of Day
13h 21m
Waxing Gibbous, 95% of the Moon is Illuminated
Dec 26
Waxing Gibbous
Dec 28
Full
Jan 5
Last Quarter
Jan 12
New
Jan 19
First Quarter

Hourly Weather History & Observations

Time (AWST) Temp. Heat Index Dew Point Humidity Pressure Visibility Wind Dir Wind Speed Gust Speed Precip Events Conditions
12:00 AM 88 °F - 80 °F 72% 29.78 in - NE 11.5 mph - -  
12:00 AM 87.8 °F 104.9 °F 80.6 °F 79% 29.77 in 6.2 mi NE 11.5 mph - N/A   Scattered Clouds
12:30 AM 87.8 °F 108.2 °F 82.4 °F 84% 29.74 in - North 10.4 mph - N/A   Unknown
1:00 AM 86.0 °F 101.9 °F 80.6 °F 84% 29.74 in - North 10.4 mph - N/A   Unknown
1:30 AM 87.8 °F 102.5 °F 78.8 °F 75% 29.74 in 6.2 mi NNW 9.2 mph - N/A   Unknown
2:00 AM 87 °F - 78 °F 69% 29.75 in - North 9.2 mph - -  
2:00 AM 86.0 °F 99.3 °F 78.8 °F 79% 29.74 in 6.2 mi North 9.2 mph - N/A   Unknown
2:30 AM 86.0 °F 96.9 °F 77.0 °F 74% 29.74 in 6.2 mi North 9.2 mph - N/A   Unknown
3:00 AM 86 °F - 77 °F 69% 29.73 in - NNW 10.4 mph - -  
3:00 AM 86.0 °F 96.9 °F 77.0 °F 74% 29.71 in 6.2 mi NNW 10.4 mph - N/A   Unknown
3:30 AM 86.0 °F 99.3 °F 78.8 °F 79% 29.71 in 6.2 mi NNW 8.1 mph - N/A   Unknown
4:00 AM 86.0 °F 99.3 °F 78.8 °F 79% 29.71 in 6.2 mi NW 6.9 mph - N/A   Unknown
4:30 AM 86.0 °F 99.3 °F 78.8 °F 79% 29.71 in 6.2 mi West 6.9 mph - N/A   Unknown
5:00 AM 86 °F - 77 °F 69% 29.74 in - South 13.8 mph - -  
5:00 AM 86.0 °F 96.9 °F 77.0 °F 74% 29.74 in 6.2 mi South 13.8 mph - N/A   Unknown
5:30 AM 86.0 °F 96.9 °F 77.0 °F 74% 29.74 in 6.2 mi South 15.0 mph - N/A   Unknown
6:00 AM 87 °F - 76 °F 63% 29.76 in 19 mi South 10.4 mph - -   Mostly Cloudy
6:00 AM 86.0 °F 96.9 °F 77.0 °F 74% 29.74 in - South 10.4 mph - N/A   Clear
6:30 AM 87.8 °F 99.7 °F 77.0 °F 70% 29.77 in - ESE 6.9 mph - N/A   Clear
7:00 AM 87.8 °F 97.6 °F 75.2 °F 66% 29.80 in - East 8.1 mph - N/A   Clear
7:23 AM 87.8 °F 99.7 °F 77.0 °F 70% 29.80 in - East 20.7 mph - N/A   Clear
7:30 AM 89.6 °F 102.2 °F 77.0 °F 66% 29.80 in - East 18.4 mph - N/A   Clear
7:55 AM 87.8 °F 93.8 °F 71.6 °F 58% 29.80 in 6.2 mi East 25.3 mph - N/A   Unknown
8:30 AM 89.6 °F 93.4 °F 68.0 °F 49% 29.80 in - ESE 18.4 mph - N/A   Clear
9:00 AM 92 °F - 66 °F 33% 29.81 in 19 mi East 20.7 mph - -   Partly Cloudy
9:00 AM 91.4 °F 94.0 °F 66.2 °F 43% 29.80 in - East 20.7 mph - N/A   Clear
9:30 AM 95.0 °F 97.0 °F 64.4 °F 36% 29.80 in - ESE 17.3 mph - N/A   Clear
10:00 AM 98.6 °F 99.4 °F 60.8 °F 29% 29.77 in - ESE 18.4 mph - N/A   Clear
10:30 AM 100.4 °F 101.3 °F 60.8 °F 27% 29.77 in - East 16.1 mph - N/A   Clear
11:00 AM 100 °F - 61 °F 19% 29.75 in - East 18.4 mph - -  
11:00 AM 100.4 °F 101.3 °F 60.8 °F 27% 29.74 in - East 18.4 mph - N/A   Clear
11:17 AM 102.2 °F 101.4 °F 57.2 °F 22% 29.74 in - East 17.3 mph 28.8 mph N/A   Clear
11:30 AM 104.0 °F 104.6 °F 59.0 °F 23% 29.71 in - East 18.4 mph - N/A   Clear
12:00 PM 106 °F - 59 °F 13% 29.71 in 19 mi East 18.4 mph - -   Partly Cloudy
12:00 PM 105.8 °F 106.8 °F 59.0 °F 22% 29.71 in - East 18.4 mph - N/A   Clear
12:30 PM 105.8 °F 104.9 °F 55.4 °F 19% 29.68 in 6.2 mi East 13.8 mph - N/A   Unknown
1:00 PM 105.8 °F 105.5 °F 57.2 °F 20% 29.65 in - ENE 10.4 mph - N/A   Clear
1:30 PM 104.0 °F 106.6 °F 62.6 °F 26% 29.65 in - NE 15.0 mph - N/A   Clear
2:00 PM 98 °F - 70 °F 31% 29.68 in - North 15.0 mph - -  
2:00 PM 98.6 °F 105.5 °F 69.8 °F 39% 29.68 in - North 15.0 mph - N/A   Clear
2:30 PM 96.8 °F 101.8 °F 68.0 °F 39% 29.65 in - NNE 17.3 mph - N/A   Clear
3:00 PM 98 °F - 70 °F 31% 29.66 in 19 mi North 17.3 mph - -   Scattered Clouds
3:00 PM 98.6 °F 105.5 °F 69.8 °F 39% 29.65 in - North 17.3 mph - N/A   Clear
3:30 PM 96.8 °F 101.8 °F 68.0 °F 39% 29.65 in 6.2 mi North 19.6 mph - N/A   Unknown
4:00 PM 95.0 °F 99.5 °F 68.0 °F 41% 29.65 in 6.2 mi North 17.3 mph - N/A   Unknown
4:30 PM 93.2 °F 98.8 °F 69.8 °F 46% 29.65 in 6.2 mi NNE 17.3 mph - N/A   Unknown
5:00 PM 94 °F - 71 °F 38% 29.65 in - North 15.0 mph - -  
5:00 PM 93.2 °F 100.5 °F 71.6 °F 49% 29.62 in 6.2 mi North 15.0 mph - N/A   Unknown
5:30 PM 91.4 °F 98.4 °F 71.6 °F 52% 29.65 in 6.2 mi North 13.8 mph - N/A   Unknown
6:00 PM 90 °F - 74 °F 50% 29.66 in - North 12.7 mph - -  
6:00 PM 89.6 °F 98.2 °F 73.4 °F 59% 29.65 in 6.2 mi North 12.7 mph - N/A   Unknown
6:30 PM 89.6 °F 99.8 °F 75.2 °F 62% 29.65 in 6.2 mi North 12.7 mph - N/A   Unknown
7:00 PM 87.8 °F 97.6 °F 75.2 °F 66% 29.68 in 6.2 mi NNW 10.4 mph - N/A   Unknown
7:30 PM 87.8 °F 102.5 °F 78.8 °F 75% 29.68 in 6.2 mi NNW 11.5 mph - N/A   Unknown
8:00 PM 87 °F - 79 °F 71% 29.72 in - NNW 11.5 mph - -  
8:00 PM 86.0 °F 99.3 °F 78.8 °F 79% 29.71 in 6.2 mi NNW 11.5 mph - N/A   Unknown
8:30 PM 86.0 °F 96.9 °F 77.0 °F 74% 29.71 in 6.2 mi NW 10.4 mph - N/A   Unknown
9:00 PM 86 °F - 78 °F 72% 29.74 in - NW 13.8 mph - -  
9:00 PM 86.0 °F 99.3 °F 78.8 °F 79% 29.74 in 6.2 mi NW 13.8 mph - N/A   Unknown
9:30 PM 86.0 °F 99.3 °F 78.8 °F 79% 29.74 in 6.2 mi WNW 12.7 mph - N/A   Unknown
10:00 PM 86.0 °F 99.3 °F 78.8 °F 79% 29.77 in 6.2 mi WNW 10.4 mph - N/A   Unknown
10:30 PM 86.0 °F 99.3 °F 78.8 °F 79% 29.77 in 6.2 mi WNW 10.4 mph - N/A   Unknown
11:00 PM 85 °F - 79 °F 77% 29.77 in - WNW 6.9 mph - -  
11:00 PM 86.0 °F 99.3 °F 78.8 °F 79% 29.77 in 6.2 mi WNW 6.9 mph - N/A   Unknown
11:30 PM 86.0 °F 99.3 °F 78.8 °F 79% 29.80 in 6.2 mi South 11.5 mph - N/A   Scattered Clouds